Weather History for Patuxent River, MD

Change the Weather History Date:

Wednesday, December 5, 2012

  Actual Average Record
Temperature  
Mean Temperature 54 °F -  
Max Temperature 63 °F 49 °F 73 °F (1982)
Min Temperature 43 °F 34 °F 25 °F (2006)
Degree Days  
Heating Degree Days 11    
Growing Degree Days 4 (Base 50)    
Moisture  
Dew Point 39 °F    
Average Humidity 53    
Maximum Humidity 72    
Minimum Humidity 35    
Precipitation  
Precipitation 0.00 in - - ()
Sea Level Pressure  
Sea Level Pressure 30.12 in    
Wind  
Wind Speed 12 mph (WNW)    
Max Wind Speed 16 mph    
Max Gust Speed 24 mph    
Visibility 10 miles    
Events Rain    
Averages and records for this station are not official NWS values.
T = Trace of Precipitation, MM = Missing Value Source: NWS Daily Summary

Daily Weather History Graph

Daily Weather History Graph

Search for Another Location

Airport:

Trip Planner

Search our weather history database for the weather conditions in past years. The results will help you decide how hot, cold, wet, or windy it might be!

Date:

Astronomy

Dec. 05, 2012 Rise Set
Actual Time 7:07 AM EST 4:45 PM EST
Civil Twilight 6:38 AM EST 5:14 PM EST
Nautical Twilight 6:05 AM EST 5:47 PM EST
Astronomical Twilight 5:33 AM EST 6:19 PM EST
Moon 11:28 PM EST (12/5) 11:34 AM EST (12/5)
Length of Visible Light 10h 36m
Length of Day
9h 37m
Waning Gibbous, 60% of the Moon is Illuminated
Dec 5
Waning Gibbous
Dec 6
Last Quarter
Dec 13
New
Dec 20
First Quarter
Dec 28
Full

Hourly Weather History & Observations

Time (EST) Temp. Windchill Dew Point Humidity Pressure Visibility Wind Dir Wind Speed Gust Speed Precip Events Conditions
12:52 AM 63.0 °F - 51.1 °F 65% 30.04 in 10.0 mi SSW 15.0 mph - N/A   Overcast
1:52 AM 63.0 °F - 51.1 °F 65% 30.03 in 10.0 mi SSW 12.7 mph - N/A   Mostly Cloudy
2:52 AM 63.0 °F - 51.1 °F 65% 30.01 in 10.0 mi SSW 13.8 mph - 0.00 in   Mostly Cloudy
3:52 AM 63.0 °F - 51.1 °F 65% 30.00 in 10.0 mi SSW 10.4 mph 18.4 mph N/A   Overcast
4:52 AM 63.0 °F - 51.1 °F 65% 30.00 in 10.0 mi SSW 13.8 mph - N/A   Mostly Cloudy
5:15 AM 62.6 °F - 51.8 °F 68% 30.00 in 10.0 mi SSW 11.5 mph 19.6 mph N/A   Scattered Clouds
5:52 AM 60.1 °F - 51.1 °F 72% 30.04 in 10.0 mi West 5.8 mph - N/A   Mostly Cloudy
6:52 AM 59.0 °F - 46.9 °F 64% 30.08 in 10.0 mi WNW 13.8 mph - N/A   Mostly Cloudy
7:35 AM 59.0 °F - 44.6 °F 59% 30.09 in 10.0 mi WNW 13.8 mph - 0.00 in Rain Light Rain
7:52 AM 59.0 °F - 44.1 °F 58% 30.11 in 10.0 mi WNW 11.5 mph - 0.00 in Rain Light Rain
9:52 AM 59.0 °F - 44.1 °F 58% 30.15 in 10.0 mi WNW 6.9 mph - 0.00 in Rain Light Rain
10:52 AM 55.9 °F - 44.1 °F 64% 30.14 in 10.0 mi West 6.9 mph - 0.00 in   Mostly Cloudy
11:52 AM 57.0 °F - 33.1 °F 40% 30.13 in 10.0 mi NW 15.0 mph - N/A   Mostly Cloudy
12:52 PM 57.9 °F - 33.1 °F 39% 30.12 in 10.0 mi NW 11.5 mph - N/A   Mostly Cloudy
1:52 PM 59.0 °F - 30.9 °F 35% 30.11 in 10.0 mi NW 13.8 mph - N/A   Mostly Cloudy
2:52 PM 57.0 °F - 30.0 °F 36% 30.12 in 10.0 mi WNW 12.7 mph - N/A   Mostly Cloudy
3:52 PM 57.0 °F - 30.9 °F 37% 30.12 in 10.0 mi West 6.9 mph - N/A   Mostly Cloudy
4:52 PM 53.1 °F - 33.1 °F 47% 30.14 in 10.0 mi WNW 5.8 mph - N/A   Scattered Clouds
5:52 PM 53.1 °F - 30.9 °F 43% 30.16 in 10.0 mi WNW 10.4 mph - N/A   Partly Cloudy
6:52 PM 52.0 °F - 28.9 °F 41% 30.19 in 10.0 mi NNW 13.8 mph - N/A   Clear
7:52 PM 51.1 °F - 28.0 °F 41% 30.22 in 10.0 mi NNW 16.1 mph 24.2 mph N/A   Clear
8:52 PM 48.0 °F - 27.0 °F 44% 30.25 in 10.0 mi NNW 16.1 mph 21.9 mph N/A   Clear
9:52 PM 46.0 °F 40.6 °F 27.0 °F 47% 30.26 in 10.0 mi NNW 11.5 mph - N/A   Clear
10:52 PM 45.0 °F 38.5 °F 27.0 °F 49% 30.28 in 10.0 mi NNW 13.8 mph - N/A   Clear
11:52 PM 43.0 °F 36.0 °F 25.0 °F 49% 30.28 in 10.0 mi NNW 13.8 mph - N/A   Clear